Regional Weather Roundup
Issued by NWS

Home | Current Version | Previous Version | Graphics & Text | Print | Product List | Glossary On
Versions: 1 2 3 4 5 6 7 8 9 10 11 12 13 14 15 16 17 18 19 20 21 22 23 24 25 26 27 28 29 30 31 32 33 34 35 36 37 38 39 40 41 42 43 44 45 46 47 48 49 50
000
ASUS43 KDTX 270010
RWRMI
MICHIGAN HOURLY REGIONAL WEATHER ROUNDUP
NATIONAL WEATHER SERVICE DETROIT/PONTIAC MI
800 PM EDT TUE MAY 26 2015

NOTE: "FAIR" INDICATES FEW OR NO CLOUDS BELOW 12,000 FEET WITH NO
SIGNIFICANT WEATHER AND/OR OBSTRUCTION TO VISIBILITY.

MIZ047>049-052>055-059>063-066>070-074>076-081>083-270100-
SOUTHEAST LOWER MICHIGAN

CITY           SKY/WX    TMP DP  RH WIND       PRES   REMARKS
ADRIAN         CLOUDY    71  68  90 SW15      29.89F
6HR MIN TEMP:  71; 6HR MAX TEMP:  86; 6HR PCP:  0.09;

ALMA           CLOUDY    71  68  92 S8        29.82S
6HR MIN TEMP:  69; 6HR MAX TEMP:  80;

ANN ARBOR      CLOUDY    71  68  90 S7        29.88F
BAD AXE        LGT RAIN  75  64  70 S22       29.84R
CARO           CLOUDY    72  67  87 S14G20    29.84R
DETROIT CITY   RAIN      70  67  90 SW14G23   29.90R FOG
6HR MIN TEMP:  70; 6HR MAX TEMP:  84; 6HR PCP:  0.08;

DETROIT        LGT RAIN  71  67  87 S13       29.90F FOG
6HR MIN TEMP:  71; 6HR MAX TEMP:  83; 6HR PCP:  0.34;

FLINT          CLOUDY    74  68  81 S9        29.85F
6HR MIN TEMP:  73; 6HR MAX TEMP:  85; 6HR PCP:  0.05;

GROSSE ILE     LGT RAIN  70  66  88 S10       29.91S
HILLSDALE      CLOUDY    71  70  96 S9G17     29.89S
6HR MIN TEMP:  71; 6HR MAX TEMP:  85;

HOWELL         CLOUDY    71  68  90 S10       29.86S

CITY           SKY/WX    TMP DP  RH WIND       PRES   REMARKS
JACKSON        HVY RAIN  68  62  81 SW17G33   29.88R
6HR MIN TEMP:  68; 6HR MAX TEMP:  83; 6HR PCP:  0.06;

LAMBERTVILLE   CLOUDY    70  66  88 S10       29.91F
LANSING        CLOUDY    69  64  84 S9        29.84F
6HR MIN TEMP:  69; 6HR MAX TEMP:  82; 6HR PCP:  0.34;

LAPEER         CLOUDY    70  67  89 S10       29.88R
MASON          HVY RAIN  66  62  86 SW10G22   29.87R
MONROE         CLOUDY    70  66  88 S10       29.89F
MT. CLEMENS    LGT RAIN  70  68  94 SW13G28   29.88R
6HR MIN TEMP:  72; 6HR MAX TEMP:  82; 6HR PCP:  0.04;

PONTIAC        CLOUDY    70  68  93 SE6       29.88S
6HR MIN TEMP:  69; 6HR MAX TEMP:  83; 6HR PCP:  0.39;

PORT HOPE        N/A    N/A N/A N/A SE10G18   29.80F
PORT HURON     CLOUDY    77  63  61 SE15      29.87S
TRI CITIES     CLOUDY    72  67  84 S14       29.82F
6HR MIN TEMP:  71; 6HR MAX TEMP:  83; 6HR PCP:  0.51;

MIDLAND        CLOUDY    71  68  90 S9        29.81S
TROY           RAIN      70  68  93 SW10G18   29.92R
SAGINAW HB     RAIN      70  70 100 SW9       29.83S
$$
MIZ043>046-050>051-056>058-064>065-071>073-077>080-270100-
SOUTHWEST LOWER MICHIGAN

CITY           SKY/WX    TMP DP  RH WIND       PRES   REMARKS
BATTLE CREEK   CLOUDY    70  61  73 S12G23    29.85S
6HR MIN TEMP:  68; 6HR MAX TEMP:  86; 6HR PCP:  0.54;

BENTON HARBOR  PTSUNNY   74  64  71 SW10G18   29.80R
6HR MIN TEMP:  66; 6HR MAX TEMP:  77; 6HR PCP:  0.32;

BIG RAPIDS     CLOUDY    69  65  86 S7        29.79R
6HR MIN TEMP:  69; 6HR MAX TEMP:  78; 6HR PCP:  0.34;

COLDWATER      CLOUDY    68  63  83 SW5       29.86S
6HR MIN TEMP:  66; 6HR MAX TEMP:  81;

FREMONT        FAIR      70  61  73 SW16G22   29.78S
HOLLAND        MOSUNNY   72  64  76 S8        29.80S
6HR MIN TEMP:  67; 6HR MAX TEMP:  80; 6HR PCP:  0.61;

GRAND RAPIDS   CLOUDY    69  63  81 S12       29.80S
6HR MIN TEMP:  68; 6HR MAX TEMP:  80; 6HR PCP:  0.24;

IONIA          CLOUDY    71  66  85 S8        29.81F
KALAMAZOO      CLOUDY    72  62  71 SW9       29.84R
6HR MIN TEMP:  69; 6HR MAX TEMP:  84; 6HR PCP:  0.85;

LUDINGTON      PTSUNNY   71  64  77 S15G22    29.74S
6HR MIN TEMP:  66; 6HR MAX TEMP:  76; 6HR PCP:  0.38;

MARSHALL       CLOUDY    67  62  83 S7        29.86R
MOUNT PLEASANT RAIN      71  67  88 S8        29.80R
6HR MIN TEMP:  70; 6HR MAX TEMP:  80; 6HR PCP:  0.28;

MUSKEGON       PTSUNNY   68  61  78 S14G24    29.78S
6HR MIN TEMP:  68; 6HR MAX TEMP:  80; 6HR PCP:  0.68;

SOUTH HAVEN    PTSUNNY   72  65  78 S7        29.80S
$$
MIZ016>042-270100-
NORTHERN LOWER MICHIGAN

CITY           SKY/WX    TMP DP  RH WIND       PRES   REMARKS
ALPENA         RAIN      65  62  90 SE8       29.81F FOG
6HR MIN TEMP:  65; 6HR MAX TEMP:  86; 6HR PCP:  0.05;

BEAVER ISLAND  DRIZZLE   56  56  97 SE8       29.76F
6HR MIN TEMP:  54; 6HR MAX TEMP:  70;

BELLAIRE       LGT RAIN  68  66  94 CALM      29.74F
6HR MIN TEMP:  67; 6HR MAX TEMP:  83;

CADILLAC       CLOUDY    69  65  88 S8        29.77F
CHARLEVOIX     DRIZZLE   64  63  98 E7        29.77F
6HR MIN TEMP:  54; 6HR MAX TEMP:  80;

FRANKFORT      CLOUDY    70  62  75 SW8G18    29.73R
GAYLORD        RAIN      67  67 100 S3        29.78F FOG
6HR MIN TEMP:  67; 6HR MAX TEMP:  80; 6HR PCP:  0.35;

GRAYLING       LGT RAIN  66  66 100 CALM      29.78F
HARBOR SPRINGS LGT RAIN  65  65  97 CALM      29.76F
HOUGHTON LAKE  LGT RAIN  68  64  87 S10       29.79F
6HR MIN TEMP:  67; 6HR MAX TEMP:  80; 6HR PCP:  1.04;

MANISTEE       CLOUDY    70  64  83 S5        29.74F
OSCODA         HVY RAIN  65  65  98 SE3       29.79F
PELLSTON       LGT RAIN  65  64  97 E5        29.77F FOG
6HR MIN TEMP:  65; 6HR MAX TEMP:  82; 6HR PCP:  0.22;

ROGERS CITY    LGT RAIN  73  65  76 SE9       29.79F
TRAVERSE CITY  CLOUDY    71  66  84 VRB5      29.72F
6HR MIN TEMP:  67; 6HR MAX TEMP:  81; 6HR PCP:  0.38;

$$
MIZ007>008-015-270100-
EASTERN UPPER MICHIGAN

CITY           SKY/WX    TMP DP  RH WIND       PRES   REMARKS
KINROSS        CLOUDY    66  64  94 N5        29.77F
6HR MIN TEMP:  66; 6HR MAX TEMP:  79;

MACKINAC ISLAN LGT RAIN  62  61  96 CALM      29.76F
6HR MIN TEMP:  61; 6HR MAX TEMP:  74;

NEWBERRY       CLOUDY    64  64  97 N7        29.75F FOG
6HR MIN TEMP:  61; 6HR MAX TEMP:  66;

S. S. MARIE    CLOUDY    68  61  78 SE5       29.78F
6HR MIN TEMP:  68; 6HR MAX TEMP:  77; 6HR PCP: TRACE;

MUNISING         N/A     46  44  93 NE3       29.75F
6HR MIN TEMP:  46; 6HR MAX TEMP:  54; 6HR PCP:  0.06;

$$
MIZ004>006-011>014-085-270100-
CENTRAL UPPER MICHIGAN

CITY           SKY/WX    TMP DP  RH WIND       PRES   REMARKS
MANISTIQUE     DRIZZLE   57  56  96 SE5       29.75S
6HR MIN TEMP:  51; 6HR MAX TEMP:  68; 6HR PCP:  0.01;

ESCANABA       CLOUDY    63  59  88 NE10      29.69F
6HR MIN TEMP:  59; 6HR MAX TEMP:  63;

MENOMINEE      CLOUDY    59  55  88 E8        29.66F
6HR MIN TEMP:  59; 6HR MAX TEMP:  66; 6HR PCP:  0.24;

SAWYER-GWINN   HVY RAIN  52  50  93 NE7       29.76F
$$
MIZ001>003-009>011-084-270100-
WESTERN UPPER MICHIGAN

CITY           SKY/WX    TMP DP  RH WIND       PRES   REMARKS
IRON MOUNTAIN  RAIN      64  62  93 E10       29.69F FOG
6HR MIN TEMP:  64; 6HR MAX TEMP:  73; 6HR PCP:  0.13;

HOUGHTON       CLOUDY    54  51  90 E5        29.75F
6HR MIN TEMP:  54; 6HR MAX TEMP:  63;

COPPER HARBOR    N/A     46  44  93 CALM      29.77F
6HR MIN TEMP:  43; 6HR MAX TEMP:  59;

IRONWOOD       CLOUDY    54  54 100 CALM      29.73S
6HR MIN TEMP:  54; 6HR MAX TEMP:  55;

$$

ABBREVIATIONS USED IN REMARKS
   TC - TEMPERATURE IN CELSIUS
  WCI - WIND CHILL INDEX
   HX - HEAT INDEX
  VSB - VISIBILITY




USA.gov is the U.S. government's official web portal to all federal, state and local government web resources and services.